Regional Weather Roundup
Issued by NWS Huntsville, AL

Home | Current Version | Previous Version | Text Only | Print | Product List | Glossary On
Versions: 1 2 3 4 5 6 7 8 9 10 11 12 13 14 15 16 17 18 19 20 21 22 23 24 25 26 27 28 29 30 31 32 33 34 35 36 37 38 39 40 41 42 43 44 45 46 47 48 49 50
000
ASUS44 KHUN 262110
RWRHUN

WEATHER ROUNDUP FOR THE TENNESSEE VALLEY
NATIONAL WEATHER SERVICE HUNTSVILLE AL
400 PM CDT THU APR 26 2018

ALZ001>004-262200-
NORTHWEST ALABAMA

CITY           SKY/WX    TMP DP  RH WIND       PRES   REMARKS
SHOALS AIRPORT CLOUDY    57  53  86 NE7       29.83R
$$

ALZ005>007-016-262200-
NORTH CENTRAL ALABAMA

CITY           SKY/WX    TMP DP  RH WIND       PRES   REMARKS
DECATUR AP     LGT RAIN  55  54  96 NE10      29.82S
HUNTSVILLE AP  RAIN      56  54  93 NE10      29.82S FOG
MERIDIANVILLE  CLOUDY    54  53  95 N8        29.84R
REDSTONE ARSN  LGT RAIN  54  54 100 NE12      29.81R VSB 5/8
VINEMONT AP    MOCLDY    61  54  77 CALM      29.81S
$$

ALZ008>010-262200-
NORTHEAST ALABAMA

CITY           SKY/WX    TMP DP  RH WIND       PRES   REMARKS
ALBERTVILLE    CLOUDY    57  57 100 CALM      29.80R
FORT PAYNE     CLOUDY    55  52  88 CALM      29.80S
SCOTTSBORO AP  CLOUDY    57  57 100 CALM      29.81R FOG
$$

TNZ076-096-097-262200-
SOUTHEASTERN MIDDLE TENNESSEE

CITY           SKY/WX    TMP DP  RH WIND       PRES   REMARKS
TULLAHOMA      PTSUNNY   55  54  94 CALM      29.84R FOG
WINCHESTER     CLOUDY    52  52 100 N5        29.84R FOG
$$

...SURROUNDING SITES...

CITY           SKY/WX    TMP DP  RH WIND       PRES   REMARKS
ATLANTA        PTSUNNY   59  55  87 SE7       29.81F
ANNISTON       FAIR      64  58  80 NE3       29.78F
BIRMINGHAM     PTSUNNY   63  56  78 NW9       29.80F
CHATTANOOGA    CLOUDY    58  52  80 N12       29.81F
CORINTH          N/A     59  57  94 N7        29.83S FOG
DALTON         CLOUDY    59  55  88 CALM      29.82F
GADSDEN        PTSUNNY   61  57  88 E3        29.80F
GOLDEN TRNGL   PTSUNNY   62  54  74 W12G17    29.84S
HALEYVILLE     CLOUDY    59  56  89 SW7       29.81R
JACKSON TN     CLOUDY    59  57  93 NE10      29.86F
MEMPHIS        PTSUNNY   61  56  83 N14       29.87F
NASHVILLE      LGT RAIN  58  53  84 N12       29.87R
OXFORD MS      CLOUDY    61  55  82 N15       29.86S
ROME           CLOUDY    58  56  93 E3        29.79S
SAVANNAH       CLOUDY    59  57  94 NE7       29.83S
TUPELO         CLOUDY    63  55  75 NW9       29.81R
TUSCALOOSA     CLOUDY    64  53  67 W13G20    29.82R
$$

...GULF COAST WEATHER...

CITY           SKY/WX    TMP DP  RH WIND       PRES   REMARKS
GULFPORT       FAIR      75  53  46 NW18G25   29.84F
PASCAGOULA     FAIR      77  52  41 VRB5      29.83F
MOBILE         FAIR      74  52  46 NW9       29.85S
GULF SHORES    FAIR      74  56  52 W16G23    29.82F
PENSACOLA      FAIR      76  58  53 W8G21     29.81
DESTIN         FAIR      76  61  59 SW13G21   29.82F
PANAMA CITY    SUNNY     73  66  77 SW10      29.84F
APPALACHICOLA  FAIR      78  65  63 W16       29.86F
$$




USA.gov is the U.S. government's official web portal to all federal, state and local government web resources and services.